Latest Coastal Weather Observations for Lady Elliot Island

IDQ60701

Issued at 7:35 am EST Sunday 23 November 2014 (issued every 10 minutes, with the page automatically refreshed every 10 minutes)

About coastal observations | Map of coastal stations | Coastal observations for QLD | Marine services | Other Formats
Station Details ID: 039059 Name: LADY ELLIOT ISLAND Lat: -24.11 Lon: 152.72 Height: 3.6 m
Data from the previous 72 hours. | See also: Recent months at Lady Elliot Island
Date/Time
EST
Temp

°C
Wind Pressure Rain
since 9am
mm
Weather Cloud Vis
km
Sea
Height
m
Swell
Dir
 
Speed
knots
Gust
knots
hPa Trend Height
m
Period
s
Dir
23/07:30am 27.1 NE 4 7 1017.6 - 0.0 - - - - - - -
23/07:00am 26.6 NNE 5 8 1017.3 - 0.0 - - - - - - -
23/06:30am 26.1 NNE 6 10 1016.9 - 0.0 - - - - - - -
23/06:00am 25.0 NE 4 8 1016.7 - 0.0 - - - - - - -
23/05:30am 24.2 NNE 5 10 1016.4 - 0.0 - - - - - - -
23/05:00am 23.6 NNE 5 9 1016.0 - 0.0 - - - - - - -
23/04:30am 23.5 NNE 5 9 1015.7 - 0.0 - - - - - - -
23/04:00am 23.7 NNE 4 7 1015.4 - 0.0 - - - - - - -
23/03:30am 23.5 N 5 9 1015.3 - 0.0 - - - - - - -
23/03:00am 23.7 NE 5 8 1015.3 - 0.0 - - - - - - -
23/02:30am 23.8 N 5 8 1015.3 - 0.0 - - - - - - -
23/02:00am 23.9 NNW 5 9 1015.3 - 0.0 - - - - - - -
23/01:30am 24.1 NNE 6 10 1015.4 - 0.0 - - - - - - -
23/01:00am 24.2 NNE 5 9 1015.6 - 0.0 - - - - - - -
23/12:30am 24.2 NNE 6 10 1015.9 - 0.0 - - - - - - -
23/12:00am 24.3 NNE 7 11 1016.0 - 0.0 - - - - - - -
 
Date/Time
EST
Temp

°C
Wind Pressure Rain
since 9am
mm
Weather Cloud Vis
km
Sea
Height
m
Swell
Dir
 
Speed
knots
Gust
knots
hPa Trend Height
m
Period
s
Dir
22/11:30pm 24.4 NNE 7 11 1016.3 - 0.0 - - - - - - -
22/11:00pm 24.5 NNE 7 11 1016.4 - 0.0 - - - - - - -
22/10:30pm 24.6 NNE 7 10 1016.3 - 0.0 - - - - - - -
22/10:00pm 24.8 NNE 8 14 1016.2 - 0.0 - - - - - - -
22/09:30pm 24.8 NNE 6 12 1016.0 - 0.0 - - - - - - -
22/09:00pm 24.8 NNE 7 11 1015.8 - 0.0 - - - - - - -
22/08:30pm 24.8 NNE 8 12 1015.6 - 0.0 - - - - - - -
22/08:00pm 24.8 NNE 8 11 1015.3 - 0.0 - - - - - - -
22/07:30pm 24.8 NNE 7 11 1015.0 - 0.0 - - - - - - -
22/07:00pm 24.9 NNE 7 11 1014.7 - 0.0 - - - - - - -
22/06:30pm 25.0 NNE 7 10 1014.3 - 0.0 - - - - - - -
22/06:00pm 25.6 NNE 8 12 1013.9 - 0.0 - - - - - - -
22/05:30pm 26.5 NNE 7 11 1013.7 - 0.0 - - - - - - -
22/05:00pm 26.8 NNE 8 11 1013.5 - 0.0 - - - - - - -
22/04:30pm 27.6 NNE 7 10 1013.4 - 0.0 - - - - - - -
22/04:00pm 28.0 N 6 10 1013.6 - 0.0 - - - - - - -
22/03:30pm 27.6 NNE 7 10 1013.8 - 0.0 - - - - - - -
22/03:00pm 28.4 N 6 9 1014.1 - 0.0 - - - - - - -
22/02:30pm 28.6 N 6 9 1014.3 - 0.0 - - - - - - -
22/02:00pm 28.8 NNE 6 9 1014.7 - 0.0 - - - - - - -
22/01:30pm 28.7 N 6 9 1014.9 - 0.0 - - - - - - -
22/01:00pm 28.5 N 6 10 1015.2 - 0.0 - - - - - - -
22/12:30pm 28.7 N 6 9 1015.4 - 0.0 - - - - - - -
22/12:00pm 28.6 N 7 12 1015.8 - 0.0 - - - - - - -
22/11:30am 28.1 N 6 9 1016.1 - 0.0 - - - - - - -
22/11:00am 28.7 N 6 10 1016.3 - 0.0 - - - - - - -
22/10:30am 28.5 N 6 10 1016.5 - 0.0 - - - - - - -
22/10:00am 28.5 N 6 11 1016.8 - 0.0 - - - - - - -
22/09:30am 27.6 N 6 9 1016.9 - 0.0 - - - - - - -
22/09:00am 27.4 N 6 9 1016.8 - 0.0 - - - - - - -
22/08:30am 27.7 N 7 10 1016.8 - 0.0 - - - - - - -
22/08:00am 26.8 N 6 10 1016.8 - 0.0 - - - - - - -
22/07:30am 26.9 N 6 10 1016.6 - 0.0 - - - - - - -
22/07:00am 26.5 N 6 10 1016.3 - 0.0 - - - - - - -
22/06:30am 25.9 N 6 10 1015.9 - 0.0 - - - - - - -
22/06:00am 25.4 N 6 10 1015.5 - 0.0 - - - - - - -
22/05:30am 24.9 N 6 10 1015.1 - 0.0 - - - - - - -
22/05:00am 24.7 N 7 10 1014.5 - 0.0 - - - - - - -
22/04:30am 24.6 N 7 11 1014.1 - 0.0 - - - - - - -
22/04:00am 24.8 N 7 12 1014.1 - 0.0 - - - - - - -
22/03:30am 24.9 N 8 13 1013.8 - 0.0 - - - - - - -
22/03:00am 24.8 N 7 11 1013.5 - 0.0 - - - - - - -
22/02:30am 24.8 N 8 11 1013.4 - 0.0 - - - - - - -
22/02:00am 24.8 N 8 12 1013.4 - 0.0 - - - - - - -
22/01:30am 24.7 N 8 13 1013.5 - 0.0 - - - - - - -
22/01:00am 24.8 NNE 10 13 1013.7 - 0.0 - - - - - - -
22/12:30am 24.9 NNE 9 14 1014.0 - 0.0 - - - - - - -
22/12:00am 24.9 NNE 9 13 1014.5 - 0.0 - - - - - - -
 
Date/Time
EST
Temp

°C
Wind Pressure Rain
since 9am
mm
Weather Cloud Vis
km
Sea
Height
m
Swell
Dir
 
Speed
knots
Gust
knots
hPa Trend Height
m
Period
s
Dir
21/11:30pm 25.0 NNE 10 14 1014.7 - 0.0 - - - - - - -
21/11:00pm 25.0 NNE 9 14 1014.9 - 0.0 - - - - - - -
21/10:30pm 25.0 NNE 9 12 1014.9 - 0.0 - - - - - - -
21/10:00pm 25.2 NNE 8 12 1014.9 - 0.0 - - - - - - -
21/09:30pm 25.1 NNE 8 11 1014.9 - 0.0 - - - - - - -
21/09:00pm 25.1 NNE 6 9 1014.8 - 0.0 - - - - - - -
21/08:30pm 25.2 NNE 6 9 1014.6 - 0.0 - - - - - - -
21/08:00pm 25.1 NNE 6 9 1014.5 - 0.0 - - - - - - -
21/07:30pm 25.1 NNE 6 10 1014.2 - 0.0 - - - - - - -
21/07:00pm 25.2 NNE 7 9 1014.1 - 0.0 - - - - - - -
21/06:30pm 25.4 N 5 8 1014.1 - 0.0 - - - - - - -
21/06:00pm 25.8 N 4 7 1013.8 - 0.0 - - - - - - -
21/05:30pm 26.6 N 5 7 1013.7 - 0.0 - - - - - - -
21/05:00pm 27.0 N 5 7 1013.5 - 0.0 - - - - - - -
21/04:30pm 27.3 N 6 9 1013.3 - 0.0 - - - - - - -
21/04:00pm 27.7 N 5 7 1013.2 - 0.0 - - - - - - -
21/03:30pm 28.0 N 6 9 1013.2 - 0.0 - - - - - - -
21/03:00pm 28.1 N 6 9 1013.2 - 0.0 - - - - - - -
21/02:30pm 27.8 N 6 8 1013.7 - 0.0 - - - - - - -
21/02:00pm 28.2 N 6 9 1014.2 - 0.0 - - - - - - -
21/01:30pm 28.1 N 7 9 1014.6 - 0.0 - - - - - - -
21/01:00pm 27.9 N 7 8 1015.0 - 0.0 - - - - - - -
21/12:30pm 28.2 NNW 7 9 1015.4 - 0.0 - - - - - - -
21/12:00pm 27.9 NNW 7 9 1015.8 - 0.0 - - - - - - -
21/11:30am 27.9 NNW 6 8 1016.0 - 0.0 - - - - - - -
21/11:00am 27.7 NNW 7 9 1016.3 - 0.0 - - - - - - -
21/10:30am 27.4 N 7 8 1016.4 - 0.0 - - - - - - -
21/10:00am 27.7 N 7 8 1016.6 - 0.0 - - - - - - -
21/09:30am 27.4 NNW 5 7 1016.7 - 0.0 - - - - - - -
21/09:00am 27.1 NW 5 8 1016.8 - 0.0 - - - - - - -
21/08:30am 27.6 NNW 6 8 1016.9 - 0.0 - - - - - - -
21/08:00am 26.7 N 6 9 1016.8 - 0.0 - - - - - - -
21/07:30am 26.1 N 6 8 1016.7 - 0.0 - - - - - - -
21/07:00am 26.1 N 6 10 1016.6 - 0.0 - - - - - - -
21/06:30am 26.0 N 6 8 1016.1 - 0.0 - - - - - - -
21/06:00am 25.4 N 5 9 1016.0 - 0.0 - - - - - - -
21/05:30am 24.7 N 6 9 1015.9 - 0.0 - - - - - - -
21/05:00am 24.3 N 6 8 1015.4 - 0.0 - - - - - - -
21/04:30am 24.4 NNE 6 9 1015.1 - 0.0 - - - - - - -
21/04:00am 24.4 N 5 9 1014.9 - 0.0 - - - - - - -
21/03:30am 24.3 N 5 8 1014.7 - 0.0 - - - - - - -
21/03:00am 24.2 NNE 5 7 1014.7 - 0.0 - - - - - - -
21/02:30am 24.3 N 5 8 1014.8 - 0.0 - - - - - - -
21/02:00am 24.3 NNE 5 8 1015.0 - 0.0 - - - - - - -
21/01:30am 24.4 NNE 5 8 1015.2 - 0.0 - - - - - - -
21/01:00am 24.4 N 5 9 1015.3 - 0.0 - - - - - - -
21/12:30am 24.5 NNE 5 8 1015.5 - 0.0 - - - - - - -
21/12:00am 24.5 N 5 8 1016.0 - 0.0 - - - - - - -
 
Date/Time
EST
Temp

°C
Wind Pressure Rain
since 9am
mm
Weather Cloud Vis
km
Sea
Height
m
Swell
Dir
 
Speed
knots
Gust
knots
hPa Trend Height
m
Period
s
Dir
20/11:30pm 24.6 N 6 9 1016.3 - 0.0 - - - - - - -
20/11:00pm 24.7 NNE 5 9 1016.4 - 0.0 - - - - - - -
20/10:30pm 24.7 NNE 7 10 1016.5 - 0.0 - - - - - - -
20/10:00pm 24.7 NNE 6 9 1016.8 - 0.0 - - - - - - -
20/09:30pm 24.8 NNE 5 7 1016.7 - 0.0 - - - - - - -
20/09:00pm 24.9 NE 5 8 1016.6 - 0.0 - - - - - - -
20/08:30pm 24.9 NE 4 8 1016.3 - 0.0 - - - - - - -
20/08:00pm 25.0 NE 5 8 1016.2 - 0.0 - - - - - - -
20/07:30pm 25.1 NE 6 10 1016.0 - 0.0 - - - - - - -
20/07:00pm 25.2 NNE 4 9 1015.8 - 0.0 - - - - - - -
20/06:30pm 25.3 NE 6 9 1015.6 - 0.0 - - - - - - -
20/06:00pm 25.8 NE 5 9 1015.3 - 0.0 - - - - - - -
20/05:30pm 26.4 NE 6 8 1015.0 - 0.0 - - - - - - -
20/05:00pm 26.7 NE 6 9 1014.7 - 0.0 - - - - - - -
20/04:30pm 26.9 ENE 5 8 1014.4 - 0.0 - - - - - - -
20/04:00pm 27.3 NE 6 8 1014.2 - 0.0 - - - - - - -
20/03:30pm 27.9 ENE 6 8 1014.4 - 0.0 - - - - - - -
20/03:00pm 27.8 NE 5 8 1014.7 - 0.0 - - - - - - -
20/02:30pm 28.1 NE 5 8 1014.9 - 0.0 - - - - - - -
20/02:00pm 27.7 NNE 6 9 1015.2 - 0.0 - - - - - - -
20/01:30pm 28.1 NNE 6 9 1015.4 - 0.0 - - - - - - -
20/01:00pm 27.7 NNE 5 7 1015.9 - 0.0 - - - - - - -
20/12:30pm 27.5 NNE 6 7 1016.4 - 0.0 - - - - - - -
20/12:00pm 27.0 NNE 6 9 1016.7 - 0.0 - - - - - - -
20/11:30am 28.2 NE 5 8 1017.1 - 0.0 - - - - - - -
20/11:00am 28.8 NNE 5 8 1017.2 - 0.0 - - - - - - -
20/10:30am 28.9 NNE 5 8 1017.6 - 0.0 - - - - - - -
20/10:00am 27.3 NNE 4 7 1017.7 - 0.0 - - - - - - -
20/09:30am 28.3 NE 4 7 1017.7 - 0.0 - - - - - - -
20/09:00am 27.6 ENE 5 7 1017.9 - 5.0 - - - - - - -
20/08:30am 27.0 ENE 6 9 1017.7 - 5.0 - - - - - - -
20/08:00am 27.3 ENE 6 9 1017.6 - 5.0 - - - - - - -

Other Formats:

Comma delimited format used in spreadsheet applications
http://www.bom.gov.au/fwo/IDQ60701/IDQ60701.94388.axf

JavaScript Object Notation format (JSON) in row-major order
http://www.bom.gov.au/fwo/IDQ60701/IDQ60701.94388.json